Location: Sedan
(39.2354°N, 78.5718°W)
Time: 23:52:28
(UTC+00:00)

ISS - Pass Details

Date: 09 December 2021
Orbit: 413 x 422 km, 51.6° (Epoch: 25 January)

Event Time Altitude Azimuth Distance (km) Brightness Sun altitude
Rises 22:18:17 0° 306° (NW) 2,384 0.5 -5.5°
Reaches altitude 10° 22:20:24 10° 304° (NW) 1,513 -0.5 -5.9°
Maximum altitude 22:23:47 72° 221° (SW) 448 -3.4 -6.5°
Drops below altitude 10° 22:27:08 10° 136° (SE) 1,498 -1.1 -7.1°
Enters shadow 22:33:18 -12° 133° (SE) 4,033 1.0 -8.2°
